Time,TemperatureF,DewpointF,PressureIn,WindDirection,WindDirectionDegrees,WindSpeedMPH,WindSpeedGustMPH,Humidity,HourlyPrecipIn,Conditions,Clouds,dailyrainin,SoftwareType,DateUTC
2013-07-04 00:01:00,63.8,61.4,30.05,SSW,209,1.2,0.0,92,0.00,RA,,0.00,WeatherDisplay:10.37,2013-07-04 05:01:00,
2013-07-04 00:06:00,63.7,61.3,30.04,SSW,209,0.0,0.0,92,0.00,RA,,0.00,WeatherDisplay:10.37,2013-07-04 05:06:00,
2013-07-04 00:11:00,63.5,60.8,30.04,SSW,209,0.0,0.0,91,0.00,CLR,,0.00,WeatherDisplay:10.37,2013-07-04 05:11:00,
2013-07-04 00:16:00,63.4,61.0,30.04,SSW,209,0.0,0.0,92,0.00,CLR,,0.00,WeatherDisplay:10.37,2013-07-04 05:16:00,
2013-07-04 00:21:00,63.3,60.9,30.04,SSW,209,0.0,0.0,92,0.00,CLR,,0.00,WeatherDisplay:10.37,2013-07-04 05:21:00,
2013-07-04 00:26:00,63.2,60.8,30.03,SSW,209,0.0,0.0,92,0.00,CLR,,0.00,WeatherDisplay:10.37,2013-07-04 05:26:00,
2013-07-04 00:31:00,63.1,60.7,30.03,SSW,209,0.0,0.0,92,0.00,CLR,,0.00,WeatherDisplay:10.37,2013-07-04 05:31:00,
2013-07-04 00:36:00,63.0,60.6,30.03,SSW,209,0.0,0.0,92,0.00,CLR,,0.00,WeatherDisplay:10.37,2013-07-04 05:36:00,
2013-07-04 00:41:00,63.0,60.6,30.03,SSW,209,0.0,0.0,92,0.00,CLR,,0.00,WeatherDisplay:10.37,2013-07-04 05:41:00,
2013-07-04 00:46:00,62.9,60.5,30.04,SSW,209,0.0,0.0,92,0.00,CLR,,0.00,WeatherDisplay:10.37,2013-07-04 05:46:00,
2013-07-04 00:51:00,62.8,60.4,30.04,SSW,209,0.0,0.0,92,0.00,CLR,,0.00,WeatherDisplay:10.37,2013-07-04 05:51:00,
2013-07-04 00:56:00,62.7,60.3,30.04,SSW,209,0.0,0.0,92,0.00,CLR,,0.00,WeatherDisplay:10.37,2013-07-04 05:56:00,
2013-07-04 01:01:00,62.7,60.3,30.04,SSW,209,0.0,0.0,92,0.00,CLR,,0.00,WeatherDisplay:10.37,2013-07-04 06:01:00,
2013-07-04 01:07:00,62.6,60.2,30.04,SSW,209,3.5,3.5,92,0.00,CLR,,0.00,WeatherDisplay:10.37,2013-07-04 06:07:00,
2013-07-04 01:12:00,62.6,60.5,30.04,SSW,209,0.0,0.0,93,0.00,CLR,,0.00,WeatherDisplay:10.37,2013-07-04 06:12:00,
2013-07-04 01:17:00,62.5,60.1,30.04,SSW,209,0.0,0.0,92,0.00,CLR,,0.00,WeatherDisplay:10.37,2013-07-04 06:17:00,
2013-07-04 01:22:00,62.5,60.4,30.04,SSW,209,0.0,0.0,93,0.00,CLR,,0.00,WeatherDisplay:10.37,2013-07-04 06:22:00,
2013-07-04 01:27:00,62.4,60.3,30.04,SSW,209,0.0,0.0,93,0.00,CLR,,0.00,WeatherDisplay:10.37,2013-07-04 06:27:00,
2013-07-04 01:32:00,62.3,59.9,30.04,SSW,209,0.0,0.0,92,0.00,CLR,,0.00,WeatherDisplay:10.37,2013-07-04 06:32:00,
2013-07-04 01:37:00,62.2,59.8,30.04,SSW,209,0.0,0.0,92,0.00,CLR,,0.00,WeatherDisplay:10.37,2013-07-04 06:37:00,
2013-07-04 01:42:00,62.1,59.7,30.04,SSW,209,2.3,2.3,92,0.00,CLR,,0.00,WeatherDisplay:10.37,2013-07-04 06:42:00,
2013-07-04 01:47:00,62.0,59.6,30.04,SSW,209,0.0,0.0,92,0.00,CLR,,0.00,WeatherDisplay:10.37,2013-07-04 06:47:00,
2013-07-04 01:52:00,62.0,60.0,30.04,SSW,209,2.3,2.3,93,0.00,CLR,,0.00,WeatherDisplay:10.37,2013-07-04 06:52:00,
2013-07-04 01:57:00,61.9,59.9,30.04,SSW,209,2.3,2.3,93,0.00,CLR,,0.00,WeatherDisplay:10.37,2013-07-04 06:57:00,
2013-07-04 02:02:00,61.7,59.7,30.04,SSW,209,0.0,0.0,93,0.00,CLR,,0.00,WeatherDisplay:10.37,2013-07-04 07:02:00,
2013-07-04 02:07:00,61.6,59.6,30.04,SSW,209,0.0,0.0,93,0.00,CLR,,0.00,WeatherDisplay:10.37,2013-07-04 07:07:00,
2013-07-04 02:12:00,61.5,59.5,30.04,SSW,209,1.2,1.2,93,0.00,CLR,,0.00,WeatherDisplay:10.37,2013-07-04 07:12:00,
2013-07-04 02:17:00,61.5,59.5,30.04,SSW,209,0.0,0.0,93,0.00,CLR,,0.00,WeatherDisplay:10.37,2013-07-04 07:17:00,
2013-07-04 02:22:00,61.4,59.4,30.04,SSW,209,0.0,0.0,93,0.00,CLR,,0.00,WeatherDisplay:10.37,2013-07-04 07:22:00,
2013-07-04 02:27:00,61.2,59.2,30.04,SSW,209,0.0,0.0,93,0.00,CLR,,0.00,WeatherDisplay:10.37,2013-07-04 07:27:00,
2013-07-04 02:32:00,61.1,59.1,30.03,SSW,209,0.0,0.0,93,0.00,CLR,,0.00,WeatherDisplay:10.37,2013-07-04 07:32:00,
2013-07-04 02:37:00,61.0,59.0,30.03,SSW,209,0.0,0.0,93,0.00,CLR,,0.00,WeatherDisplay:10.37,2013-07-04 07:37:00,
2013-07-04 02:42:00,60.9,58.9,30.04,SSW,209,0.0,0.0,93,0.00,CLR,,0.00,WeatherDisplay:10.37,2013-07-04 07:42:00,
2013-07-04 02:47:00,60.8,58.8,30.04,SSW,209,0.0,0.0,93,0.00,CLR,,0.00,WeatherDisplay:10.37,2013-07-04 07:47:00,
2013-07-04 02:52:00,60.8,58.8,30.04,SSW,209,0.0,0.0,93,0.00,CLR,,0.00,WeatherDisplay:10.37,2013-07-04 07:52:00,
2013-07-04 02:57:00,60.7,58.7,30.04,SSW,209,0.0,0.0,93,0.00,CLR,,0.00,WeatherDisplay:10.37,2013-07-04 07:57:00,
2013-07-04 03:02:00,60.7,58.7,30.04,SSW,209,0.0,0.0,93,0.00,CLR,,0.00,WeatherDisplay:10.37,2013-07-04 08:02:00,
2013-07-04 03:07:00,60.8,58.8,30.04,SSW,209,0.0,0.0,93,0.00,CLR,,0.00,WeatherDisplay:10.37,2013-07-04 08:07:00,
2013-07-04 03:12:00,60.7,58.7,30.04,SSW,209,0.0,0.0,93,0.00,CLR,,0.00,WeatherDisplay:10.37,2013-07-04 08:12:00,
2013-07-04 03:17:00,60.6,58.6,30.03,SSW,209,0.0,0.0,93,0.00,CLR,,0.00,WeatherDisplay:10.37,2013-07-04 08:17:00,
2013-07-04 03:22:00,60.5,58.5,30.04,SSW,209,0.0,0.0,93,0.00,CLR,,0.00,WeatherDisplay:10.37,2013-07-04 08:22:00,
2013-07-04 03:27:00,60.4,58.4,30.04,SSW,209,1.2,1.2,93,0.00,CLR,,0.00,WeatherDisplay:10.37,2013-07-04 08:27:00,
2013-07-04 03:32:00,60.3,58.3,30.04,SSW,209,0.0,0.0,93,0.00,CLR,,0.00,WeatherDisplay:10.37,2013-07-04 08:32:00,
2013-07-04 03:37:00,60.3,58.3,30.04,SSW,209,2.3,2.3,93,0.00,CLR,,0.00,WeatherDisplay:10.37,2013-07-04 08:37:00,
2013-07-04 03:42:00,60.2,58.2,30.04,SSW,209,1.0,1.0,93,0.00,CLR,,0.00,WeatherDisplay:10.37,2013-07-04 08:42:00,
2013-07-04 03:47:00,60.2,58.2,30.04,SSW,209,2.3,0.0,93,0.00,CLR,,0.00,WeatherDisplay:10.37,2013-07-04 08:47:00,
2013-07-04 03:52:00,60.1,58.1,30.04,SSW,209,0.0,0.0,93,0.00,CLR,,0.00,WeatherDisplay:10.37,2013-07-04 08:52:00,
2013-07-04 03:57:00,60.1,58.1,30.04,SSW,209,0.0,0.0,93,0.00,CLR,,0.00,WeatherDisplay:10.37,2013-07-04 08:57:00,
2013-07-04 04:02:00,60.1,58.4,30.04,SSW,209,0.0,0.0,94,0.00,CLR,,0.00,WeatherDisplay:10.37,2013-07-04 09:02:00,
2013-07-04 04:07:00,60.1,58.4,30.03,SSW,209,0.0,0.0,94,0.00,CLR,,0.00,WeatherDisplay:10.37,2013-07-04 09:07:00,
2013-07-04 04:12:00,60.1,58.4,30.04,SSW,209,0.0,0.0,94,0.00,CLR,,0.00,WeatherDisplay:10.37,2013-07-04 09:12:00,
2013-07-04 04:17:00,60.1,58.4,30.04,SSW,209,0.0,0.0,94,0.00,CLR,,0.00,WeatherDisplay:10.37,2013-07-04 09:17:00,
2013-07-04 04:22:00,60.0,58.0,30.04,SSW,209,0.0,0.0,93,0.00,CLR,,0.00,WeatherDisplay:10.37,2013-07-04 09:22:00,
2013-07-04 04:27:00,59.8,57.8,30.04,SSW,209,0.0,0.0,93,0.00,CLR,,0.00,WeatherDisplay:10.37,2013-07-04 09:27:00,
2013-07-04 04:32:00,59.8,57.8,30.04,SSW,209,0.0,0.0,93,0.00,CLR,,0.00,WeatherDisplay:10.37,2013-07-04 09:32:00,
2013-07-04 04:37:00,59.8,57.8,30.04,SSW,209,0.0,0.0,93,0.00,CLR,,0.00,WeatherDisplay:10.37,2013-07-04 09:37:00,
2013-07-04 04:42:00,59.7,57.7,30.04,SSW,209,0.0,0.0,93,0.00,CLR,,0.00,WeatherDisplay:10.37,2013-07-04 09:42:00,
2013-07-04 04:47:00,59.6,57.6,30.04,SSW,209,0.0,0.0,93,0.00,CLR,,0.00,WeatherDisplay:10.37,2013-07-04 09:47:00,
2013-07-04 04:52:00,59.6,57.6,30.04,SSW,209,0.0,0.0,93,0.00,CLR,,0.00,WeatherDisplay:10.37,2013-07-04 09:52:00,
2013-07-04 04:57:00,59.5,57.5,30.04,SSW,209,0.0,0.0,93,0.00,CLR,,0.00,WeatherDisplay:10.37,2013-07-04 09:57:00,
2013-07-04 05:02:00,59.4,57.4,30.05,SSW,209,0.0,0.0,93,0.00,CLR,,0.00,WeatherDisplay:10.37,2013-07-04 10:02:00,
2013-07-04 05:07:00,59.2,57.2,30.05,SSW,209,4.0,4.0,93,0.00,CLR,,0.00,WeatherDisplay:10.37,2013-07-04 10:07:00,
2013-07-04 05:12:00,58.8,56.8,30.05,SSW,205,5.0,5.0,93,0.00,CLR,,0.00,WeatherDisplay:10.37,2013-07-04 10:12:00,
2013-07-04 05:18:00,58.8,56.8,30.05,SSW,205,0.0,0.0,93,0.00,CLR,,0.00,WeatherDisplay:10.37,2013-07-04 10:18:00,
2013-07-04 05:23:00,58.7,56.7,30.05,SSW,205,0.0,0.0,93,0.00,CLR,,0.00,WeatherDisplay:10.37,2013-07-04 10:23:00,
2013-07-04 05:28:00,58.9,57.2,30.05,SSW,205,0.0,0.0,94,0.00,CLR,,0.00,WeatherDisplay:10.37,2013-07-04 10:28:00,
2013-07-04 05:33:00,59.1,57.4,30.05,SSW,205,0.0,0.0,94,0.00,CLR,,0.00,WeatherDisplay:10.37,2013-07-04 10:33:00,
2013-07-04 05:38:00,59.4,57.7,30.05,SSW,205,0.0,0.0,94,0.00,CLR,,0.00,WeatherDisplay:10.37,2013-07-04 10:38:00,
2013-07-04 05:43:00,59.4,57.7,30.05,SSW,205,0.0,0.0,94,0.00,CLR,,0.00,WeatherDisplay:10.37,2013-07-04 10:43:00,
2013-07-04 05:48:00,59.4,57.7,30.05,SSW,205,0.0,0.0,94,0.00,CLR,,0.00,WeatherDisplay:10.37,2013-07-04 10:48:00,
2013-07-04 05:53:00,59.3,57.3,30.05,SSW,205,0.0,0.0,93,0.00,CLR,,0.00,WeatherDisplay:10.37,2013-07-04 10:53:00,
2013-07-04 05:58:00,59.2,57.5,30.05,SSW,205,0.0,0.0,94,0.00,CLR,,0.00,WeatherDisplay:10.37,2013-07-04 10:58:00,
2013-07-04 06:03:00,59.2,57.5,30.05,SSW,205,0.0,0.0,94,0.00,CLR,,0.00,WeatherDisplay:10.37,2013-07-04 11:03:00,
2013-07-04 06:08:00,59.3,57.6,30.05,SSW,205,0.0,0.0,94,0.00,CLR,,0.00,WeatherDisplay:10.37,2013-07-04 11:08:00,
2013-07-04 06:13:00,59.3,57.6,30.05,SSW,205,0.0,0.0,94,0.00,CLR,,0.00,WeatherDisplay:10.37,2013-07-04 11:13:00,
2013-07-04 06:18:00,59.3,57.3,30.05,SSW,205,0.0,0.0,93,0.00,CLR,,0.00,WeatherDisplay:10.37,2013-07-04 11:18:00,
2013-07-04 06:23:00,59.3,57.3,30.05,SSW,205,0.0,0.0,93,0.00,CLR,,0.00,WeatherDisplay:10.37,2013-07-04 11:23:00,
2013-07-04 06:28:00,59.5,57.5,30.05,SSW,202,4.0,4.0,93,0.00,CLR,,0.00,WeatherDisplay:10.37,2013-07-04 11:28:00,
2013-07-04 06:33:00,59.8,57.8,30.06,SSW,202,2.3,2.3,93,0.00,CLR,,0.00,WeatherDisplay:10.37,2013-07-04 11:33:00,
2013-07-04 06:38:00,59.9,57.9,30.05,SSW,202,2.3,2.3,93,0.00,CLR,,0.00,WeatherDisplay:10.37,2013-07-04 11:38:00,
2013-07-04 06:43:00,60.0,58.0,30.06,SSW,202,3.5,3.5,93,0.00,CLR,,0.00,WeatherDisplay:10.37,2013-07-04 11:43:00,
2013-07-04 06:48:00,60.2,58.2,30.06,SSW,202,3.5,3.5,93,0.00,CLR,,0.00,WeatherDisplay:10.37,2013-07-04 11:48:00,
2013-07-04 06:53:00,60.4,58.4,30.06,SSW,202,2.3,2.3,93,0.00,CLR,,0.00,WeatherDisplay:10.37,2013-07-04 11:53:00,
2013-07-04 06:58:00,60.7,58.7,30.06,SSW,202,1.2,1.2,93,0.00,CLR,,0.00,WeatherDisplay:10.37,2013-07-04 11:58:00,
2013-07-04 07:03:00,61.1,59.1,30.06,SSW,202,2.3,2.3,93,0.00,CLR,,0.00,WeatherDisplay:10.37,2013-07-04 12:03:00,
2013-07-04 07:08:00,61.3,59.3,30.06,SSW,202,0.0,0.0,93,0.00,CLR,,0.00,WeatherDisplay:10.37,2013-07-04 12:08:00,
2013-07-04 07:13:00,61.5,59.2,30.06,SSW,202,3.5,3.5,92,0.00,CLR,,0.00,WeatherDisplay:10.37,2013-07-04 12:13:00,
2013-07-04 07:18:00,61.6,59.3,30.07,SSW,202,2.3,2.3,92,0.00,CLR,,0.00,WeatherDisplay:10.37,2013-07-04 12:18:00,
2013-07-04 07:23:00,61.9,59.5,30.07,SSW,202,0.0,0.4,92,0.00,CLR,,0.00,WeatherDisplay:10.37,2013-07-04 12:23:00,
2013-07-04 07:28:00,62.3,59.9,30.07,SSW,202,2.0,2.0,92,0.00,CLR,,0.00,WeatherDisplay:10.37,2013-07-04 12:28:00,
2013-07-04 07:33:00,62.6,60.2,30.07,SSW,202,2.3,2.3,92,0.00,CLR,,0.00,WeatherDisplay:10.37,2013-07-04 12:33:00,
2013-07-04 07:38:00,62.9,60.5,30.07,SSW,201,1.2,1.2,92,0.00,CLR,,0.00,WeatherDisplay:10.37,2013-07-04 12:38:00,
2013-07-04 07:43:00,63.3,60.6,30.07,SSW,202,2.3,2.3,91,0.00,CLR,,0.00,WeatherDisplay:10.37,2013-07-04 12:43:00,
2013-07-04 07:48:00,63.8,61.1,30.07,SSW,202,2.3,2.3,91,0.00,CLR,,0.00,WeatherDisplay:10.37,2013-07-04 12:48:00,
2013-07-04 07:53:00,64.2,61.2,30.07,SSW,202,3.5,3.5,90,0.00,CLR,,0.00,WeatherDisplay:10.37,2013-07-04 12:53:00,
2013-07-04 07:58:00,64.5,61.2,30.08,SSW,202,3.5,3.5,89,0.00,CLR,,0.00,WeatherDisplay:10.37,2013-07-04 12:58:00,
2013-07-04 08:03:00,65.0,61.7,30.08,SSW,202,2.3,2.3,89,0.00,CLR,,0.00,WeatherDisplay:10.37,2013-07-04 13:03:00,
2013-07-04 08:08:00,65.5,61.9,30.08,SSW,202,2.3,2.3,88,0.00,CLR,,0.00,WeatherDisplay:10.37,2013-07-04 13:08:00,
2013-07-04 08:13:00,66.0,62.3,30.08,SSW,202,3.5,3.5,88,0.00,CLR,,0.00,WeatherDisplay:10.37,2013-07-04 13:13:00,
2013-07-04 08:18:00,66.3,62.3,30.08,SSW,202,3.5,3.5,87,0.00,CLR,,0.00,WeatherDisplay:10.37,2013-07-04 13:18:00,
2013-07-04 08:23:00,66.7,62.7,30.08,SSW,199,5.0,5.0,87,0.00,CLR,,0.00,WeatherDisplay:10.37,2013-07-04 13:23:00,
2013-07-04 08:28:00,67.0,62.7,30.08,SSW,197,4.0,4.1,86,0.00,CLR,,0.00,WeatherDisplay:10.37,2013-07-04 13:28:00,
2013-07-04 08:33:00,67.3,63.0,30.08,SSW,196,5.0,5.0,86,0.00,CLR,,0.00,WeatherDisplay:10.37,2013-07-04 13:33:00,
2013-07-04 08:38:00,67.8,63.5,30.08,SSW,192,4.6,4.6,86,0.00,CLR,,0.00,WeatherDisplay:10.37,2013-07-04 13:38:00,
2013-07-04 08:43:00,68.4,63.7,30.08,SSW,192,4.0,4.0,85,0.00,CLR,,0.00,WeatherDisplay:10.37,2013-07-04 13:43:00,
2013-07-04 08:48:00,68.7,63.3,30.08,South,182,4.6,4.6,83,0.00,CLR,,0.00,WeatherDisplay:10.37,2013-07-04 13:48:00,
2013-07-04 08:53:00,69.2,63.5,30.08,South,173,5.8,5.8,82,0.00,CLR,,0.00,WeatherDisplay:10.37,2013-07-04 13:53:00,
2013-07-04 08:59:00,69.4,63.7,30.08,South,173,3.5,3.5,82,0.00,CLR,,0.00,WeatherDisplay:10.37,2013-07-04 13:59:00,
2013-07-04 09:04:00,69.7,63.6,30.08,SSE,167,4.6,4.6,81,0.00,CLR,,0.00,WeatherDisplay:10.37,2013-07-04 14:04:00,
2013-07-04 09:09:00,70.0,63.5,30.08,SSE,153,5.0,5.2,80,0.00,CLR,,0.00,WeatherDisplay:10.37,2013-07-04 14:09:00,
2013-07-04 09:14:00,69.8,63.3,30.08,SE,144,6.9,6.9,80,0.00,CLR,,0.00,WeatherDisplay:10.37,2013-07-04 14:14:00,
2013-07-04 09:19:00,69.8,63.0,30.08,ESE,119,10.4,10.4,79,0.00,CLR,,0.00,WeatherDisplay:10.37,2013-07-04 14:19:00,
2013-07-04 09:24:00,70.2,62.6,30.08,ESE,114,10.4,10.4,77,0.00,CLR,,0.00,WeatherDisplay:10.37,2013-07-04 14:24:00,
2013-07-04 09:29:00,70.4,62.8,30.08,ESE,120,3.5,3.5,77,0.00,CLR,,0.00,WeatherDisplay:10.37,2013-07-04 14:29:00,
2013-07-04 09:34:00,70.8,63.2,30.08,ESE,122,4.6,4.6,77,0.00,CLR,,0.00,WeatherDisplay:10.37,2013-07-04 14:34:00,
2013-07-04 09:39:00,71.0,63.1,30.08,ESE,123,4.6,4.6,76,0.00,CLR,,0.00,WeatherDisplay:10.37,2013-07-04 14:39:00,
2013-07-04 09:44:00,71.3,63.0,30.08,ESE,121,3.5,3.5,75,0.00,CLR,,0.00,WeatherDisplay:10.37,2013-07-04 14:44:00,
2013-07-04 09:49:00,71.5,62.4,30.08,ESE,123,2.3,2.3,73,0.00,CLR,,0.00,WeatherDisplay:10.37,2013-07-04 14:49:00,
2013-07-04 09:54:00,72.0,62.9,30.08,ESE,121,3.5,3.5,73,0.00,CLR,,0.00,WeatherDisplay:10.37,2013-07-04 14:54:00,
2013-07-04 09:59:00,72.3,63.2,30.08,ESE,120,4.6,4.6,73,0.00,CLR,,0.00,WeatherDisplay:10.37,2013-07-04 14:59:00,
2013-07-04 10:04:00,72.3,63.2,30.08,ESE,120,3.5,3.5,73,0.00,CLR,,0.00,WeatherDisplay:10.37,2013-07-04 15:04:00,
2013-07-04 10:09:00,72.5,63.0,30.08,ESE,121,3.5,3.5,72,0.00,CLR,,0.00,WeatherDisplay:10.37,2013-07-04 15:09:00,
2013-07-04 10:14:00,72.6,63.1,30.08,ESE,121,3.5,3.5,72,0.00,CLR,,0.00,WeatherDisplay:10.37,2013-07-04 15:14:00,
2013-07-04 10:19:00,73.0,63.4,30.08,ESE,121,1.2,1.2,72,0.00,CLR,,0.00,WeatherDisplay:10.37,2013-07-04 15:19:00,
2013-07-04 10:24:00,73.2,62.8,30.08,ESE,121,3.0,5.0,70,0.00,CLR,,0.00,WeatherDisplay:10.37,2013-07-04 15:24:00,
2013-07-04 10:29:00,73.3,62.5,30.08,ESE,121,3.5,3.5,69,0.00,CLR,,0.00,WeatherDisplay:10.37,2013-07-04 15:29:00,
2013-07-04 10:34:00,73.4,61.8,30.08,ESE,119,4.6,4.6,67,0.00,CLR,,0.00,WeatherDisplay:10.37,2013-07-04 15:34:00,
2013-07-04 10:39:00,73.7,62.5,30.08,ESE,119,3.0,3.0,68,0.00,CLR,,0.00,WeatherDisplay:10.37,2013-07-04 15:39:00,
2013-07-04 10:44:00,74.3,61.8,30.08,ESE,117,3.5,3.5,65,0.00,CLR,,0.00,WeatherDisplay:10.37,2013-07-04 15:44:00,
2013-07-04 10:49:00,74.3,60.9,30.08,SE,127,4.6,4.6,63,0.00,CLR,,0.00,WeatherDisplay:10.37,2013-07-04 15:49:00,
2013-07-04 10:54:00,73.9,61.0,30.08,SE,126,4.6,4.6,64,0.00,CLR,,0.00,WeatherDisplay:10.37,2013-07-04 15:54:00,
2013-07-04 10:59:00,73.8,61.3,30.08,SE,127,9.2,9.2,65,0.00,CLR,,0.00,WeatherDisplay:10.37,2013-07-04 15:59:00,
2013-07-04 11:04:00,73.8,61.7,30.08,SE,133,4.6,4.6,66,0.00,CLR,,0.00,WeatherDisplay:10.37,2013-07-04 16:04:00,
2013-07-04 11:09:00,74.0,61.9,30.08,SE,139,5.0,5.0,66,0.00,CLR,,0.00,WeatherDisplay:10.37,2013-07-04 16:09:00,
2013-07-04 11:14:00,74.1,61.6,30.08,SE,140,5.0,5.0,65,0.00,CLR,,0.00,WeatherDisplay:10.37,2013-07-04 16:14:00,
2013-07-04 11:19:00,73.9,62.2,30.07,SE,142,6.0,6.0,67,0.00,CLR,,0.00,WeatherDisplay:10.37,2013-07-04 16:19:00,
2013-07-04 11:24:00,73.9,62.2,30.08,SE,142,4.6,4.6,67,0.00,CLR,,0.00,WeatherDisplay:10.37,2013-07-04 16:24:00,
2013-07-04 11:29:00,74.2,63.0,30.08,SE,144,4.6,4.6,68,0.00,CLR,,0.00,WeatherDisplay:10.37,2013-07-04 16:29:00,
2013-07-04 11:34:00,74.5,62.4,30.07,SSE,147,3.5,3.5,66,0.00,CLR,,0.00,WeatherDisplay:10.37,2013-07-04 16:34:00,
2013-07-04 11:39:00,74.9,63.2,30.08,SE,141,5.0,5.0,67,0.00,CLR,,0.00,WeatherDisplay:10.37,2013-07-04 16:39:00,
2013-07-04 11:44:00,74.9,62.8,30.08,SE,141,3.5,3.5,66,0.00,CLR,,0.00,WeatherDisplay:10.37,2013-07-04 16:44:00,
2013-07-04 11:49:00,75.2,62.6,30.08,SE,135,4.6,4.6,65,0.00,CLR,,0.00,WeatherDisplay:10.37,2013-07-04 16:49:00,
2013-07-04 11:54:00,75.2,62.6,30.08,SE,135,5.8,5.8,65,0.00,CLR,,0.00,WeatherDisplay:10.37,2013-07-04 16:54:00,
2013-07-04 11:59:00,75.3,62.7,30.08,SE,132,3.5,3.5,65,0.00,CLR,,0.00,WeatherDisplay:10.37,2013-07-04 16:59:00,
2013-07-04 12:04:00,75.5,62.5,30.08,SE,128,3.5,3.5,64,0.00,CLR,,0.00,WeatherDisplay:10.37,2013-07-04 17:04:00,
2013-07-04 12:09:00,75.5,62.5,30.08,SE,130,6.9,6.9,64,0.00,CLR,,0.00,WeatherDisplay:10.37,2013-07-04 17:09:00,
2013-07-04 12:14:00,75.1,62.5,30.07,SE,134,9.2,9.2,65,0.00,CLR,,0.00,WeatherDisplay:10.37,2013-07-04 17:14:00,
2013-07-04 12:20:00,75.0,62.9,30.07,SE,124,9.2,9.2,66,0.00,CLR,,0.00,WeatherDisplay:10.37,2013-07-04 17:20:00,
2013-07-04 12:25:00,75.4,62.8,30.07,SE,132,6.9,6.9,65,0.00,CLR,,0.00,WeatherDisplay:10.37,2013-07-04 17:25:00,
2013-07-04 12:30:00,75.4,63.2,30.07,SE,127,4.6,4.6,66,0.00,CLR,,0.00,WeatherDisplay:10.37,2013-07-04 17:30:00,
2013-07-04 12:35:00,76.1,63.9,30.07,ESE,109,6.0,6.0,66,0.00,CLR,,0.00,WeatherDisplay:10.37,2013-07-04 17:35:00,
2013-07-04 12:40:00,76.2,63.6,30.07,East,101,4.6,4.6,65,0.00,CLR,,0.00,WeatherDisplay:10.37,2013-07-04 17:40:00,
2013-07-04 12:45:00,76.0,62.9,30.07,ESE,117,13.8,13.8,64,0.00,CLR,,0.00,WeatherDisplay:10.37,2013-07-04 17:45:00,
2013-07-04 12:50:00,76.0,63.4,30.07,SE,131,11.5,11.5,65,0.00,CLR,,0.00,WeatherDisplay:10.37,2013-07-04 17:50:00,
2013-07-04 12:55:00,75.8,63.2,30.07,East,90,12.7,12.7,65,0.00,CLR,,0.00,WeatherDisplay:10.37,2013-07-04 17:55:00,
2013-07-04 13:00:00,76.0,63.4,30.07,East,88,11.5,11.5,65,0.00,CLR,,0.00,WeatherDisplay:10.37,2013-07-04 18:00:00,
2013-07-04 13:05:00,76.1,63.5,30.07,ESE,113,11.5,11.5,65,0.00,CLR,,0.00,WeatherDisplay:10.37,2013-07-04 18:05:00,
2013-07-04 13:10:00,76.3,64.1,30.07,ENE,77,8.1,8.1,66,0.00,CLR,,0.00,WeatherDisplay:10.37,2013-07-04 18:10:00,
2013-07-04 13:15:00,76.7,64.0,30.07,ENE,77,5.8,5.8,65,0.00,CLR,,0.00,WeatherDisplay:10.37,2013-07-04 18:15:00,
2013-07-04 13:20:00,76.9,63.8,30.06,ENE,58,11.5,11.5,64,0.00,CLR,,0.00,WeatherDisplay:10.37,2013-07-04 18:20:00,
2013-07-04 13:25:00,77.6,64.5,30.06,SE,132,10.0,10.0,64,0.00,CLR,,0.00,WeatherDisplay:10.37,2013-07-04 18:25:00,
2013-07-04 13:30:00,77.1,63.1,30.06,ESE,121,11.5,11.5,62,0.00,CLR,,0.00,WeatherDisplay:10.37,2013-07-04 18:30:00,
2013-07-04 13:35:00,77.4,63.8,30.06,ESE,113,7.0,7.0,63,0.00,CLR,,0.00,WeatherDisplay:10.37,2013-07-04 18:35:00,
2013-07-04 13:40:00,77.4,61.9,30.06,East,85,12.7,12.7,59,0.00,CLR,,0.00,WeatherDisplay:10.37,2013-07-04 18:40:00,
2013-07-04 13:45:00,77.2,61.8,30.06,East,81,10.4,10.4,59,0.00,CLR,,0.00,WeatherDisplay:10.37,2013-07-04 18:45:00,
2013-07-04 13:50:00,77.6,62.1,30.06,ENE,69,10.4,10.4,59,0.00,CLR,,0.00,WeatherDisplay:10.37,2013-07-04 18:50:00,
2013-07-04 13:55:00,78.1,63.1,30.06,East,87,6.9,6.9,60,0.00,CLR,,0.00,WeatherDisplay:10.37,2013-07-04 18:55:00,
2013-07-04 14:00:00,78.3,62.8,30.06,ESE,106,6.9,6.9,59,0.00,CLR,,0.00,WeatherDisplay:10.37,2013-07-04 19:00:00,
2013-07-04 14:05:00,78.2,62.7,30.06,ESE,116,10.4,10.4,59,0.00,CLR,,0.00,WeatherDisplay:10.37,2013-07-04 19:05:00,
2013-07-04 14:10:00,77.5,62.5,30.06,East,94,11.5,11.5,60,0.00,CLR,,0.00,WeatherDisplay:10.37,2013-07-04 19:10:00,
2013-07-04 14:15:00,77.1,62.6,30.06,ESE,117,13.8,13.8,61,0.00,CLR,,0.00,WeatherDisplay:10.37,2013-07-04 19:15:00,
2013-07-04 14:20:00,77.1,62.6,30.06,SE,138,8.1,8.1,61,0.00,CLR,,0.00,WeatherDisplay:10.37,2013-07-04 19:20:00,
2013-07-04 14:25:00,77.5,63.0,30.05,East,89,10.4,10.4,61,0.00,CLR,,0.00,WeatherDisplay:10.37,2013-07-04 19:25:00,
2013-07-04 14:31:00,77.6,62.1,30.05,ESE,108,12.7,12.7,59,0.00,CLR,,0.00,WeatherDisplay:10.37,2013-07-04 19:31:00,
2013-07-04 14:36:00,77.3,62.3,30.05,SE,124,10.4,10.4,60,0.00,CLR,,0.00,WeatherDisplay:10.37,2013-07-04 19:36:00,
2013-07-04 14:41:00,77.6,62.1,30.05,ENE,78,14.0,14.0,59,0.00,CLR,,0.00,WeatherDisplay:10.37,2013-07-04 19:41:00,
2013-07-04 14:46:00,77.9,62.9,30.05,East,85,9.2,9.2,60,0.00,CLR,,0.00,WeatherDisplay:10.37,2013-07-04 19:46:00,
2013-07-04 14:51:00,77.8,62.8,30.04,East,87,11.5,11.5,60,0.00,CLR,,0.00,WeatherDisplay:10.37,2013-07-04 19:51:00,
2013-07-04 14:56:00,77.7,62.7,30.04,ENE,63,6.9,6.9,60,0.00,CLR,,0.00,WeatherDisplay:10.37,2013-07-04 19:56:00,
2013-07-04 15:01:00,77.9,62.9,30.04,East,87,11.0,11.0,60,0.00,CLR,,0.00,WeatherDisplay:10.37,2013-07-04 20:01:00,
2013-07-04 15:07:00,77.9,62.9,30.04,ESE,119,7.0,7.0,60,0.00,CLR,,0.00,WeatherDisplay:10.37,2013-07-04 20:07:00,
2013-07-04 15:12:00,77.8,63.3,30.04,ENE,61,6.9,6.9,61,0.00,CLR,,0.00,WeatherDisplay:10.37,2013-07-04 20:12:00,
2013-07-04 15:17:00,77.8,63.3,30.04,ENE,65,6.0,6.0,61,0.00,CLR,,0.00,WeatherDisplay:10.37,2013-07-04 20:17:00,
2013-07-04 15:22:00,77.8,63.3,30.03,ENE,70,6.9,6.9,61,0.00,CLR,,0.00,WeatherDisplay:10.37,2013-07-04 20:22:00,
2013-07-04 15:27:00,78.6,63.6,30.03,East,94,6.9,6.9,60,0.00,CLR,,0.00,WeatherDisplay:10.37,2013-07-04 20:27:00,
2013-07-04 15:32:00,79.2,63.1,30.03,ESE,117,9.2,9.2,58,0.00,CLR,,0.00,WeatherDisplay:10.37,2013-07-04 20:32:00,
2013-07-04 15:37:00,79.3,64.2,30.03,ESE,118,6.0,6.0,60,0.00,CLR,,0.00,WeatherDisplay:10.37,2013-07-04 20:37:00,
2013-07-04 15:42:00,79.1,63.1,30.03,East,94,10.0,10.0,58,0.00,CLR,,0.00,WeatherDisplay:10.37,2013-07-04 20:42:00,
2013-07-04 15:47:00,78.8,61.8,30.03,East,96,12.7,12.7,56,0.00,CLR,,0.00,WeatherDisplay:10.37,2013-07-04 20:47:00,
2013-07-04 15:52:00,79.2,63.1,30.03,East,82,6.0,6.0,58,0.00,CLR,,0.00,WeatherDisplay:10.37,2013-07-04 20:52:00,
2013-07-04 15:53:00,79.3,63.2,30.03,ESE,116,7.0,7.0,58,0.00,CLR,,0.00,WeatherDisplay:10.37,2013-07-04 20:53:00,
2013-07-04 15:58:00,79.1,61.0,30.03,East,82,11.5,11.5,54,0.00,CLR,,0.00,WeatherDisplay:10.37,2013-07-04 20:58:00,
2013-07-04 16:03:00,78.7,62.2,30.03,ENE,76,13.0,13.0,57,0.00,CLR,,0.00,WeatherDisplay:10.37,2013-07-04 21:03:00,
2013-07-04 16:08:00,78.3,60.8,30.03,East,82,9.2,9.2,55,0.00,CLR,,0.00,WeatherDisplay:10.37,2013-07-04 21:08:00,
2013-07-04 16:13:00,78.5,62.5,30.03,East,84,10.4,10.4,58,0.00,CLR,,0.00,WeatherDisplay:10.37,2013-07-04 21:13:00,
2013-07-04 16:18:00,78.5,62.0,30.02,ESE,110,12.7,12.7,57,0.00,CLR,,0.00,WeatherDisplay:10.37,2013-07-04 21:18:00,
2013-07-04 16:23:00,78.7,61.2,30.02,ESE,112,12.0,12.0,55,0.00,CLR,,0.00,WeatherDisplay:10.37,2013-07-04 21:23:00,
2013-07-04 16:28:00,78.4,60.9,30.02,ESE,113,11.5,11.5,55,0.00,CLR,,0.00,WeatherDisplay:10.37,2013-07-04 21:28:00,
2013-07-04 16:33:00,78.4,60.9,30.02,ESE,111,11.5,11.5,55,0.00,CLR,,0.00,WeatherDisplay:10.37,2013-07-04 21:33:00,
2013-07-04 16:38:00,78.5,61.5,30.02,ESE,113,11.5,11.5,56,0.00,CLR,,0.00,WeatherDisplay:10.37,2013-07-04 21:38:00,
2013-07-04 16:43:00,78.5,61.0,30.02,East,88,13.8,13.8,55,0.00,CLR,,0.00,WeatherDisplay:10.37,2013-07-04 21:43:00,
2013-07-04 16:48:00,78.4,61.4,30.02,East,98,10.0,10.0,56,0.00,CLR,,0.00,WeatherDisplay:10.37,2013-07-04 21:48:00,
2013-07-04 16:53:00,78.2,60.2,30.02,ESE,106,11.5,11.5,54,0.00,CLR,,0.00,WeatherDisplay:10.37,2013-07-04 21:53:00,
2013-07-04 16:58:00,78.5,60.5,30.02,ESE,111,11.5,11.5,54,0.00,CLR,,0.00,WeatherDisplay:10.37,2013-07-04 21:58:00,
2013-07-04 17:03:00,78.6,60.6,30.02,East,89,11.5,11.5,54,0.00,CLR,,0.00,WeatherDisplay:10.37,2013-07-04 22:03:00,
2013-07-04 17:08:00,78.7,59.6,30.02,East,80,5.8,5.8,52,0.00,CLR,,0.00,WeatherDisplay:10.37,2013-07-04 22:08:00,
2013-07-04 17:13:00,78.3,60.3,30.01,East,99,9.2,9.2,54,0.00,CLR,,0.00,WeatherDisplay:10.37,2013-07-04 22:13:00,
2013-07-04 17:18:00,78.3,60.3,30.01,East,99,11.5,11.5,54,0.00,CLR,,0.00,WeatherDisplay:10.37,2013-07-04 22:18:00,
2013-07-04 17:23:00,78.2,60.7,30.01,East,81,6.9,6.9,55,0.00,CLR,,0.00,WeatherDisplay:10.37,2013-07-04 22:23:00,
2013-07-04 17:28:00,78.3,59.2,30.01,East,98,11.5,11.5,52,0.00,CLR,,0.00,WeatherDisplay:10.37,2013-07-04 22:28:00,
2013-07-04 17:33:00,78.2,59.1,30.01,ESE,102,10.4,10.4,52,0.00,CLR,,0.00,WeatherDisplay:10.37,2013-07-04 22:33:00,
2013-07-04 17:38:00,78.1,59.6,30.01,East,99,6.9,6.9,53,0.00,CLR,,0.00,WeatherDisplay:10.37,2013-07-04 22:38:00,
2013-07-04 17:43:00,78.0,60.0,30.01,East,97,6.9,6.9,54,0.00,CLR,,0.00,WeatherDisplay:10.37,2013-07-04 22:43:00,
2013-07-04 17:48:00,77.9,60.4,30.01,East,84,9.2,9.2,55,0.00,CLR,,0.00,WeatherDisplay:10.37,2013-07-04 22:48:00,
2013-07-04 17:53:00,78.0,60.0,30.01,East,90,4.6,4.6,54,0.00,CLR,,0.00,WeatherDisplay:10.37,2013-07-04 22:53:00,
2013-07-04 17:58:00,78.0,60.0,30.01,ESE,103,5.8,6.5,54,0.00,CLR,,0.00,WeatherDisplay:10.37,2013-07-04 22:58:00,
2013-07-04 18:03:00,77.6,59.6,30.01,East,88,6.9,6.9,54,0.00,CLR,,0.00,WeatherDisplay:10.37,2013-07-04 23:03:00,
2013-07-04 18:08:00,77.6,60.2,30.01,East,94,6.9,6.9,55,0.00,CLR,,0.00,WeatherDisplay:10.37,2013-07-04 23:08:00,
2013-07-04 18:13:00,77.4,60.5,30.01,ESE,103,9.2,9.2,56,0.00,CLR,,0.00,WeatherDisplay:10.37,2013-07-04 23:13:00,
2013-07-04 18:18:00,77.2,60.8,30.01,ESE,102,6.9,6.9,57,0.00,CLR,,0.00,WeatherDisplay:10.37,2013-07-04 23:18:00,
2013-07-04 18:23:00,77.0,60.6,30.01,East,95,7.0,7.0,57,0.00,CLR,,0.00,WeatherDisplay:10.37,2013-07-04 23:23:00,
2013-07-04 18:28:00,76.7,61.3,30.01,East,94,6.9,6.9,59,0.00,CLR,,0.00,WeatherDisplay:10.37,2013-07-04 23:28:00,
2013-07-04 18:33:00,76.7,61.3,30.01,East,94,6.0,6.0,59,0.00,CLR,,0.00,WeatherDisplay:10.37,2013-07-04 23:33:00,
2013-07-04 18:38:00,76.6,61.2,30.01,East,97,10.4,10.4,59,0.00,CLR,,0.00,WeatherDisplay:10.37,2013-07-04 23:38:00,
2013-07-04 18:43:00,76.3,60.4,30.01,East,91,8.1,8.1,58,0.00,CLR,,0.00,WeatherDisplay:10.37,2013-07-04 23:43:00,
2013-07-04 18:48:00,76.1,61.2,30.01,East,90,8.1,8.1,60,0.00,CLR,,0.00,WeatherDisplay:10.37,2013-07-04 23:48:00,
2013-07-04 18:53:00,76.0,61.6,30.01,East,92,6.9,6.9,61,0.00,CLR,,0.00,WeatherDisplay:10.37,2013-07-04 23:53:00,
2013-07-04 18:58:00,75.8,61.4,30.01,East,92,5.8,5.8,61,0.00,CLR,,0.00,WeatherDisplay:10.37,2013-07-04 23:58:00,
2013-07-04 19:03:00,75.7,61.8,30.01,East,94,6.0,6.0,62,0.00,CLR,,0.00,WeatherDisplay:10.37,2013-07-05 00:03:00,
2013-07-04 19:08:00,75.6,61.2,30.01,East,94,3.5,3.5,61,0.00,CLR,,0.00,WeatherDisplay:10.37,2013-07-05 00:08:00,
2013-07-04 19:13:00,75.5,60.6,30.01,East,94,6.9,6.9,60,0.00,CLR,,0.00,WeatherDisplay:10.37,2013-07-05 00:13:00,
2013-07-04 19:18:00,75.4,61.0,30.01,East,94,4.0,4.0,61,0.00,CLR,,0.00,WeatherDisplay:10.37,2013-07-05 00:18:00,
2013-07-04 19:24:00,75.3,61.4,30.01,East,94,5.8,5.8,62,0.00,CLR,,0.00,WeatherDisplay:10.37,2013-07-05 00:24:00,
2013-07-04 19:29:00,75.1,61.2,30.01,East,92,5.8,5.8,62,0.00,CLR,,0.00,WeatherDisplay:10.37,2013-07-05 00:29:00,
2013-07-04 19:34:00,75.0,61.5,30.01,East,92,4.6,4.6,63,0.00,CLR,,0.00,WeatherDisplay:10.37,2013-07-05 00:34:00,
2013-07-04 19:39:00,74.9,61.5,30.01,East,92,5.8,5.8,63,0.00,CLR,,0.00,WeatherDisplay:10.37,2013-07-05 00:39:00,
2013-07-04 19:44:00,74.8,61.4,30.02,East,92,4.0,4.0,63,0.00,CLR,,0.00,WeatherDisplay:10.37,2013-07-05 00:44:00,
2013-07-04 19:49:00,74.7,61.7,30.01,East,92,3.5,3.5,64,0.00,CLR,,0.00,WeatherDisplay:10.37,2013-07-05 00:49:00,
2013-07-04 19:54:00,74.6,61.6,30.01,East,92,3.5,3.5,64,0.00,CLR,,0.00,WeatherDisplay:10.37,2013-07-05 00:54:00,
2013-07-04 19:59:00,74.5,62.0,30.01,East,92,4.6,4.6,65,0.00,CLR,,0.00,WeatherDisplay:10.37,2013-07-05 00:59:00,
2013-07-04 20:04:00,74.5,62.0,30.01,East,92,3.5,3.5,65,0.00,CLR,,0.00,WeatherDisplay:10.37,2013-07-05 01:04:00,
2013-07-04 20:09:00,74.4,61.9,30.01,East,93,3.5,3.5,65,0.00,CLR,,0.00,WeatherDisplay:10.37,2013-07-05 01:09:00,
2013-07-04 20:14:00,74.3,61.8,30.01,East,92,4.0,4.0,65,0.00,CLR,,0.00,WeatherDisplay:10.37,2013-07-05 01:14:00,
2013-07-04 20:19:00,74.2,62.1,30.01,East,93,3.5,3.5,66,0.00,CLR,,0.00,WeatherDisplay:10.37,2013-07-05 01:19:00,
2013-07-04 20:24:00,73.9,61.8,30.01,East,92,5.0,5.0,66,0.00,CLR,,0.00,WeatherDisplay:10.37,2013-07-05 01:24:00,
2013-07-04 20:29:00,73.7,62.1,30.01,East,92,3.5,3.5,67,0.00,CLR,,0.00,WeatherDisplay:10.37,2013-07-05 01:29:00,
2013-07-04 20:34:00,73.5,62.3,30.01,East,92,5.8,5.8,68,0.00,CLR,,0.00,WeatherDisplay:10.37,2013-07-05 01:34:00,
2013-07-04 20:39:00,73.3,62.1,30.00,East,92,6.9,6.9,68,0.00,CLR,,0.00,WeatherDisplay:10.37,2013-07-05 01:39:00,
2013-07-04 20:44:00,73.0,62.2,30.00,East,90,6.0,6.0,69,0.00,CLR,,0.00,WeatherDisplay:10.37,2013-07-05 01:44:00,
2013-07-04 20:49:00,72.9,62.1,30.00,East,91,3.0,6.0,69,0.00,CLR,,0.00,WeatherDisplay:10.37,2013-07-05 01:49:00,
2013-07-04 20:54:00,72.6,62.3,30.01,East,90,4.6,4.6,70,0.00,CLR,,0.00,WeatherDisplay:10.37,2013-07-05 01:54:00,
2013-07-04 20:59:00,72.4,62.1,30.01,East,90,4.6,4.6,70,0.00,CLR,,0.00,WeatherDisplay:10.37,2013-07-05 01:59:00,
2013-07-04 21:04:00,72.3,62.0,30.01,East,91,4.0,4.0,70,0.00,CLR,,0.00,WeatherDisplay:10.37,2013-07-05 02:04:00,
2013-07-04 21:09:00,72.1,61.8,30.01,East,91,5.0,5.0,70,0.00,CLR,,0.00,WeatherDisplay:10.37,2013-07-05 02:09:00,
2013-07-04 21:14:00,72.0,62.1,30.01,East,91,4.6,4.6,71,0.00,CLR,,0.00,WeatherDisplay:10.37,2013-07-05 02:14:00,
2013-07-04 21:19:00,71.9,62.4,30.01,East,90,3.5,3.5,72,0.00,CLR,,0.00,WeatherDisplay:10.37,2013-07-05 02:19:00,
2013-07-04 21:24:00,71.7,62.2,30.01,East,91,3.5,3.5,72,0.00,CLR,,0.00,WeatherDisplay:10.37,2013-07-05 02:24:00,
2013-07-04 21:29:00,71.6,62.5,30.02,East,91,2.3,0.0,73,0.00,CLR,,0.00,WeatherDisplay:10.37,2013-07-05 02:29:00,
2013-07-04 21:34:00,71.5,62.8,30.02,East,92,1.2,1.2,74,0.00,CLR,,0.00,WeatherDisplay:10.37,2013-07-05 02:34:00,
2013-07-04 21:39:00,71.4,62.7,30.02,East,90,2.3,2.3,74,0.00,CLR,,0.00,WeatherDisplay:10.37,2013-07-05 02:39:00,
2013-07-04 21:44:00,71.3,62.6,30.02,East,90,1.2,1.2,74,0.00,CLR,,0.00,WeatherDisplay:10.37,2013-07-05 02:44:00,
2013-07-04 21:49:00,71.3,63.0,30.02,East,91,0.0,0.0,75,0.00,CLR,,0.00,WeatherDisplay:10.37,2013-07-05 02:49:00,
2013-07-04 21:54:00,71.1,62.8,30.02,East,91,1.2,1.2,75,0.00,CLR,,0.00,WeatherDisplay:10.37,2013-07-05 02:54:00,
2013-07-04 21:59:00,71.0,63.1,30.02,East,91,0.0,0.0,76,0.00,CLR,,0.00,WeatherDisplay:10.37,2013-07-05 02:59:00,
2013-07-04 22:04:00,70.8,63.2,30.02,East,90,3.5,3.5,77,0.00,CLR,,0.00,WeatherDisplay:10.37,2013-07-05 03:04:00,
2013-07-04 22:09:00,70.7,62.8,30.02,East,91,1.2,0.0,76,0.00,CLR,,0.00,WeatherDisplay:10.37,2013-07-05 03:09:00,
2013-07-04 22:14:00,70.6,63.0,30.02,East,91,0.0,0.0,77,0.00,CLR,,0.00,WeatherDisplay:10.37,2013-07-05 03:14:00,
2013-07-04 22:19:00,70.4,62.8,30.02,East,91,0.0,0.0,77,0.00,CLR,,0.00,WeatherDisplay:10.37,2013-07-05 03:19:00,
2013-07-04 22:24:00,70.3,63.1,30.02,East,91,1.0,1.0,78,0.00,CLR,,0.00,WeatherDisplay:10.37,2013-07-05 03:24:00,
2013-07-04 22:29:00,70.3,63.1,30.02,East,91,2.3,2.3,78,0.00,CLR,,0.00,WeatherDisplay:10.37,2013-07-05 03:29:00,
2013-07-04 22:34:00,70.2,63.0,30.02,East,91,0.0,0.0,78,0.00,CLR,,0.00,WeatherDisplay:10.37,2013-07-05 03:34:00,
2013-07-04 22:39:00,70.1,62.9,30.02,East,90,2.3,2.3,78,0.00,CLR,,0.00,WeatherDisplay:10.37,2013-07-05 03:39:00,
2013-07-04 22:44:00,69.9,63.1,30.02,East,91,0.0,0.0,79,0.00,CLR,,0.00,WeatherDisplay:10.37,2013-07-05 03:44:00,
2013-07-04 22:49:00,69.7,62.9,30.02,East,90,0.0,0.0,79,0.00,CLR,,0.00,WeatherDisplay:10.37,2013-07-05 03:49:00,
2013-07-04 22:54:00,69.6,62.4,30.02,East,91,0.0,0.0,78,0.00,CLR,,0.00,WeatherDisplay:10.37,2013-07-05 03:54:00,
2013-07-04 22:59:00,69.6,63.2,30.02,East,91,0.0,0.0,80,0.00,CLR,,0.00,WeatherDisplay:10.37,2013-07-05 03:59:00,
2013-07-04 23:01:00,69.5,63.1,30.02,East,91,0.0,0.0,80,0.00,CLR,,0.00,WeatherDisplay:10.37,2013-07-05 04:01:00,
2013-07-04 23:06:00,69.4,63.3,30.03,East,90,0.0,0.0,81,0.00,CLR,,0.00,WeatherDisplay:10.37,2013-07-05 04:06:00,
2013-07-04 23:11:00,69.3,63.6,30.02,East,91,0.0,0.0,82,0.00,CLR,,0.00,WeatherDisplay:10.37,2013-07-05 04:11:00,
2013-07-04 23:16:00,69.1,63.7,30.02,East,91,3.5,3.5,83,0.00,CLR,,0.00,WeatherDisplay:10.37,2013-07-05 04:16:00,
2013-07-04 23:21:00,68.9,63.5,30.02,East,90,0.0,0.0,83,0.00,CLR,,0.00,WeatherDisplay:10.37,2013-07-05 04:21:00,
2013-07-04 23:26:00,68.8,63.4,30.02,East,90,0.0,0.0,83,0.00,CLR,,0.00,WeatherDisplay:10.37,2013-07-05 04:26:00,
2013-07-04 23:31:00,68.7,63.0,30.02,East,91,2.3,2.3,82,0.00,CLR,,0.00,WeatherDisplay:10.37,2013-07-05 04:31:00,
2013-07-04 23:36:00,68.6,62.9,30.02,East,90,0.0,0.0,82,0.00,CLR,,0.00,WeatherDisplay:10.37,2013-07-05 04:36:00,
2013-07-04 23:41:00,68.6,62.9,30.02,East,91,0.0,0.0,82,0.00,CLR,,0.00,WeatherDisplay:10.37,2013-07-05 04:41:00,
2013-07-04 23:46:00,68.6,62.9,30.02,East,91,0.0,0.0,82,0.00,CLR,,0.00,WeatherDisplay:10.37,2013-07-05 04:46:00,
2013-07-04 23:51:00,68.7,63.3,30.02,East,91,0.0,0.0,83,0.00,CLR,,0.00,WeatherDisplay:10.37,2013-07-05 04:51:00,
2013-07-04 23:56:00,68.6,63.2,30.02,East,92,0.0,0.0,83,0.00,CLR,,0.00,WeatherDisplay:10.37,2013-07-05 04:56:00,